TIANQI 34

Last updated on Sun Jan 19 2025 00:02:03 GMT+0000 (Coordinated Universal Time)

1 62366U 24245B 25018.66550953 .00000575 00000+0 41526-3 0 9992 2 62366 44.9804 90.9489 0005838 125.3799 234.7583 14.07613759 4271
UTC large
Height (km)
Speed (km/s)
/
Latitude / Longitude
Inclination (degrees)
Orbital Period (minutes)
Azimuth
Elevation
Range (km)
Doppler Factor

Next 0 passes for location: London (51.5072 / 0.1276)

Sorry there are no passes over London.